| time (UTC) | temp F | wind direction | speed MPH | gust MPH | rain 1hr in | rain 24hr in | rain mn in | humidity % | barometer mb |
| 20260504081526 | 72 | 337 | 8.0 | 18.0 | 0.00 | 0.00 | 0.00 | 33 | 1013.0 |
| 20260504044527 | 60 | 229 | 5.0 | 12.0 | 0.00 | 0.00 | 0.00 | 45 | 1013.1 |
| 20260504043027 | 59 | 191 | 3.0 | 9.0 | 0.00 | 0.00 | 0.00 | 47 | 1013.0 |
| 20260504041530 | 57 | 239 | 4.0 | 8.0 | 0.00 | 0.00 | 0.00 | 49 | 1013.0 |
| 20260504040014 | 56 | 215 | 2.0 | 5.0 | 0.00 | 0.00 | 0.00 | 51 | 1013.0 |
| 20260504034509 | 55 | 199 | 1.0 | 5.0 | 0.00 | 0.00 | 0.00 | 53 | 1013.1 |
| 20260504033006 | 54 | 208 | 2.0 | 6.0 | 0.00 | 0.00 | 0.00 | 54 | 1013.1 |
| 20260504031505 | 53 | 200 | 3.0 | 5.0 | 0.00 | 0.00 | 0.00 | 56 | 1013.0 |
| 20260504030001 | 53 | 213 | 2.0 | 5.0 | 0.00 | 0.00 | 0.00 | 58 | 1013.1 |
| 20260504024605 | 52 | 175 | 2.0 | 5.0 | 0.00 | 0.00 | 0.00 | 60 | 1013.1 |
| 20260504023059 | 52 | 178 | 1.0 | 4.0 | 0.00 | 0.00 | 0.00 | 60 | 1013.1 |
| 20260504021558 | 53 | 193 | 1.0 | 3.0 | 0.00 | 0.00 | 0.00 | 59 | 1013.1 |
| 20260504020110 | 53 | 187 | 1.0 | 3.0 | 0.00 | 0.00 | 0.00 | 60 | 1013.2 |
| 20260504014556 | 54 | 145 | 1.0 | 3.0 | 0.00 | 0.00 | 0.00 | 58 | 1013.1 |
| 20260504013057 | 55 | 165 | 1.0 | 2.0 | 0.00 | 0.00 | 0.00 | 56 | 1013.1 |
| 20260504011554 | 55 | 210 | 1.0 | 3.0 | 0.00 | 0.00 | 0.00 | 56 | 1013.3 |
| 20260504010055 | 55 | 195 | 1.0 | 4.0 | 0.00 | 0.00 | 0.00 | 55 | 1013.2 |
| 20260504004554 | 56 | 220 | 2.0 | 4.0 | 0.00 | 0.00 | 0.00 | 55 | 1013.1 |
| 20260504003053 | 56 | 232 | 1.0 | 4.0 | 0.00 | 0.00 | 0.00 | 55 | 1013.1 |
| 20260504001555 | 55 | 186 | 2.0 | 4.0 | 0.00 | 0.00 | 0.00 | 56 | 1013.2 |
| 20260504000051 | 55 | 199 | 1.0 | 3.0 | 0.00 | 0.00 | 0.00 | 56 | 1013.1 |
| 20260503234605 | 53 | 206 | 1.0 | 4.0 | 0.00 | 0.00 | 0.00 | 60 | 1013.2 |
| 20260503233049 | 51 | 46 | 0.0 | 2.0 | 0.00 | 0.00 | 0.00 | 62 | 1013.2 |
| 20260503231545 | 51 | 117 | 0.0 | 3.0 | 0.00 | 0.00 | 0.00 | 63 | 1013.3 |
| 20260503230042 | 51 | 117 | 0.0 | 1.0 | 0.00 | 0.00 | 0.00 | 60 | 1013.4 |
| 20260503224539 | 52 | 89 | 1.0 | 2.0 | 0.00 | 0.00 | 0.00 | 58 | 1013.3 |
| 20260503223036 | 53 | 135 | 0.0 | 2.0 | 0.00 | 0.00 | 0.00 | 58 | 1013.5 |
| 20260503221536 | 54 | 223 | 0.0 | 1.0 | 0.00 | 0.00 | 0.00 | 56 | 1013.5 |
| 20260503220030 | 55 | 269 | 0.0 | 2.0 | 0.00 | 0.00 | 0.00 | 54 | 1013.5 |
| 20260503214529 | 57 | 46 | 0.0 | 1.0 | 0.00 | 0.00 | 0.00 | 50 | 1013.5 |
| 20260503213030 | 56 | 178 | 1.0 | 4.0 | 0.00 | 0.00 | 0.00 | 51 | 1013.5 |
| 20260503211529 | 56 | 197 | 0.0 | 1.0 | 0.00 | 0.00 | 0.00 | 50 | 1013.5 |
| 20260503210028 | 57 | 46 | 0.0 | 2.0 | 0.00 | 0.00 | 0.00 | 50 | 1013.4 |
| 20260503204527 | 58 | 178 | 0.0 | 2.0 | 0.00 | 0.00 | 0.00 | 48 | 1013.5 |
| 20260503203026 | 59 | 331 | 0.0 | 1.0 | 0.00 | 0.00 | 0.00 | 45 | 1013.5 |
| 20260503201526 | 60 | 46 | 0.0 | 1.0 | 0.00 | 0.00 | 0.00 | 44 | 1013.4 |
| 20260503200025 | 61 | 89 | 0.0 | 2.0 | 0.00 | 0.00 | 0.00 | 43 | 1013.4 |
| 20260503194525 | 62 | 178 | 0.0 | 2.0 | 0.00 | 0.00 | 0.00 | 41 | 1013.4 |
| 20260503193023 | 64 | 56 | 0.0 | 2.0 | 0.00 | 0.00 | 0.00 | 38 | 1013.4 |
| 20260503191529 | 66 | 167 | 1.0 | 3.0 | 0.00 | 0.00 | 0.00 | 37 | 1013.4 |
| 20260503190022 | 68 | 145 | 1.0 | 2.0 | 0.00 | 0.00 | 0.00 | 34 | 1013.3 |
| 20260503184523 | 70 | 152 | 1.0 | 4.0 | 0.00 | 0.00 | 0.00 | 31 | 1013.3 |
| 20260503183020 | 71 | 195 | 2.0 | 3.0 | 0.00 | 0.00 | 0.00 | 29 | 1013.2 |
| 20260503181520 | 73 | 178 | 2.0 | 4.0 | 0.00 | 0.00 | 0.00 | 28 | 1013.2 |
| 20260503180022 | 74 | 187 | 2.0 | 5.0 | 0.00 | 0.00 | 0.00 | 26 | 1013.1 |
| 20260503174519 | 75 | 201 | 2.0 | 5.0 | 0.00 | 0.00 | 0.00 | 25 | 1013.0 |
| 20260503173027 | 76 | 202 | 2.0 | 9.0 | 0.00 | 0.00 | 0.00 | 24 | 1013.0 |
| 20260503171518 | 77 | 135 | 4.0 | 12.0 | 0.00 | 0.00 | 0.00 | 23 | 1013.0 |